MST,Max TemperatureF,Mean TemperatureF,Min TemperatureF,Max Dew PointF,MeanDew PointF,Min DewpointF,Max Humidity, Mean Humidity, Min Humidity, Max Sea Level PressureIn, Mean Sea Level PressureIn, Min Sea Level PressureIn, Max VisibilityMiles, Mean VisibilityMiles, Min VisibilityMiles, Max Wind SpeedMPH, Mean Wind SpeedMPH, Max Gust SpeedMPH,PrecipitationIn, CloudCover, Events, WindDirDegrees
2011-11-1,61,44,27,23,19,14,69,43,16,30.03,29.95,29.87,10,10,10,30,9,40,0.00,0,,232
2011-11-2,44,34,24,13,6,0,55,37,18,30.33,30.24,30.01,10,10,10,30,11,37,0.00,0,,67
2011-11-3,56,36,16,32,11,5,73,43,13,30.32,30.14,29.92,10,10,10,21,5,28,0.00,0,,207
2011-11-4,51,39,26,39,28,14,100,66,31,29.90,29.68,29.42,10,8,2,39,17,52,0.65,5,Rain,211
2011-11-5,36,30,23,34,27,20,100,89,78,29.99,29.74,29.39,10,6,0,28,12,37,0.50,7,Fog-Rain-Snow,236
2011-11-6,33,26,18,28,24,18,100,83,66,30.03,29.98,29.94,10,9,1,13,4,15,0.02,7,Snow,232
2011-11-7,32,29,26,29,26,21,100,86,72,30.06,29.91,29.83,10,4,0,16,7,24,0.35,8,Fog-Snow,245
2011-11-8,40,24,7,26,19,6,100,76,52,30.39,30.22,30.07,10,10,10,9,2,12,0.00,0,,120
2011-11-9,39,28,16,24,19,13,92,66,40,30.48,30.42,30.32,10,10,10,22,11,29,0.00,0,,62
2011-11-10,44,33,21,24,20,17,85,59,33,30.47,30.36,30.20,10,10,10,14,6,21,0.00,0,,61
2011-11-11,45,36,27,24,21,15,85,58,31,30.17,30.06,29.97,10,10,10,15,3,20,0.00,3,,221
2011-11-12,49,38,26,32,24,18,75,58,41,29.96,29.91,29.88,10,10,10,25,11,32,0.00,1,,233
2011-11-13,44,38,31,40,37,30,100,88,76,30.04,29.93,29.84,10,9,4,18,8,28,0.15,7,Rain,245
2011-11-14,49,39,28,36,34,27,100,80,60,30.02,29.95,29.84,10,9,0,16,5,20,T,4,Fog,229
2011-11-15,52,39,26,37,31,25,100,71,41,30.09,30.01,29.94,10,10,9,16,6,21,0.00,1,,233
2011-11-16,50,38,25,30,26,22,100,70,39,30.30,30.15,30.00,10,10,10,12,4,16,0.00,0,,242
2011-11-17,54,38,22,30,24,19,92,62,32,30.28,30.13,29.96,10,10,10,17,3,22,0.00,0,,221
2011-11-18,49,37,25,34,30,22,92,71,49,29.97,29.88,29.78,10,10,10,26,13,32,0.00,1,,226
2011-11-19,47,41,34,34,31,27,89,69,49,29.96,29.82,29.75,10,10,10,32,19,40,0.00,4,,227
2011-11-20,43,39,35,36,33,30,92,80,67,30.08,29.97,29.83,10,10,10,24,11,32,0.01,6,Rain,210
2011-11-21,45,38,31,37,34,26,100,77,53,30.30,30.08,29.93,10,10,5,17,6,22,0.07,7,Rain-Snow,223
2011-11-22,53,38,22,31,26,20,96,67,38,30.39,30.29,30.22,10,10,10,10,2,13,0.00,0,,85
2011-11-23,59,40,20,31,23,17,96,60,24,30.35,30.21,30.06,10,10,9,14,2,20,0.00,0,,58
2011-11-24,48,35,21,34,26,18,96,68,39,30.13,30.03,29.95,10,10,7,29,7,40,0.01,2,Rain,232
2011-11-25,53,41,28,31,22,13,100,61,22,30.18,30.05,29.95,10,10,9,15,5,25,0.00,0,,263
2011-11-26,48,36,23,17,4,-12,68,41,13,30.47,30.37,30.22,10,10,10,31,15,38,0.00,0,,59
2011-11-27,57,41,24,14,4,-6,62,37,12,30.54,30.44,30.36,10,10,10,24,5,30,0.00,0,,79
2011-11-28,66,43,20,21,13,6,73,42,10,30.45,30.32,30.17,10,10,10,14,1,17,0.00,0,,355
2011-11-29,57,41,24,16,12,8,68,42,15,30.36,30.25,30.16,10,10,10,16,5,22,0.00,0,,76
2011-11-30,54,37,19,22,16,11,73,47,20,30.21,29.95,29.61,10,10,10,25,8,32,0.00,0,,220